Location: ActonStarParty
(42.4766°N, 71.4538°W)
Time: 01:36:02
(UTC-04:00)

ATLAS 5 CENTAUR R/B - Visible Passes

Search period start: 23 July 2014 00:00
Search period end: 02 August 2014 00:00
Orbit: 325 x 15030 km, 60.8° (Epoch: 03 February)

Date Brightness Start Highest point End Pass type
(mag) Time Alt. Az. Time Alt. Az. Time Alt. Az.
24 Jul 9.1 04:55:32 10° ESE 06:01:07 25° E 06:35:49 10° NE visible
24 Jul 5.8 20:46:23 10° WNW 20:48:55 11° WNW 20:50:54 10° W visible
25 Jul 9.9 04:30:53 10° E 04:57:11 13° ENE 05:16:28 10° ENE visible
28 Jul 8.9 04:50:08 10° SE 06:12:37 34° E 06:51:39 10° NE visible
29 Jul 9.6 04:14:11 10° ESE 05:07:10 20° ENE 05:38:07 10° NE visible
01 Aug 8.7 04:48:40 10° SE 06:24:06 42° E 07:05:39 10° NE visible
